This is the latest recevied weather packets stored in our database for station/object K0VSC-1. If no packets are shown the sender has not sent any weather packets the latest 10 day(s).
| Time | Temp. | Humidity | Pressure | Rain* | Wind** | Luminosity | Snow |
|---|---|---|---|---|---|---|---|
| 1777860190 | 16.11° C | 35% | 1002.2 hPa | 0 mm | - | 0 W/m² | - |
| 1777859889 | 16.11° C | 35% | 1002.4 hPa | 0 mm | - | 0 W/m² | - |
| 1777859590 | 16.11° C | 35% | 1002.4 hPa | 0 mm | - | 0 W/m² | - |
| 1777859290 | 16.11° C | 35% | 1002.5 hPa | 0 mm | - | 0 W/m² | - |
| 1777858990 | 16.11° C | 35% | 1002.5 hPa | 0 mm | - | 0 W/m² | - |
| 1777858690 | 16.67° C | 35% | 1002.6 hPa | 0 mm | - | 0 W/m² | - |
| 1777858390 | 16.67° C | 36% | 1002.6 hPa | 0 mm | - | 0 W/m² | - |
| 1777858090 | 16.67° C | 36% | 1002.7 hPa | 0 mm | - | 0 W/m² | - |
| 1777857790 | 17.22° C | 35% | 1002.8 hPa | 0 mm | - | 0 W/m² | - |
| 1777857490 | 17.22° C | 34% | 1002.8 hPa | 0 mm | - | 5 W/m² | - |
| 1777857190 | 17.22° C | 34% | 1002.8 hPa | 0 mm | - | 9 W/m² | - |
| 1777856890 | 17.22° C | 34% | 1002.8 hPa | 0 mm | - | 12 W/m² | - |
| 1777856590 | 17.78° C | 34% | 1002.8 hPa | 0 mm | - | 14 W/m² | - |
| 1777856290 | 17.78° C | 33% | 1003 hPa | 0 mm | - | 14 W/m² | - |
| 1777855990 | 17.78° C | 32% | 1002.9 hPa | 0 mm | - | 18 W/m² | - |
| 1777855690 | 17.78° C | 32% | 1003.1 hPa | 0 mm | - | 19 W/m² | - |
| 1777855390 | 18.33° C | 31% | 1003.1 hPa | 0 mm | - | 21 W/m² | - |
| 1777855090 | 18.33° C | 30% | 1003.1 hPa | 0 mm | - | 25 W/m² | - |
| 1777854790 | 18.33° C | 31% | 1003.1 hPa | 0 mm | - | 25 W/m² | - |
| 1777854490 | 18.33° C | 31% | 1003.1 hPa | 0 mm | - | 28 W/m² | - |
| 1777854190 | 18.33° C | 30% | 1003.2 hPa | 0 mm | - | 28 W/m² | - |
| 1777853890 | 18.89° C | 30% | 1003.2 hPa | 0 mm | - | 30 W/m² | - |
| 1777853590 | 18.89° C | 31% | 1003.2 hPa | 0 mm | - | 40 W/m² | - |
| 1777853290 | 18.89° C | 31% | 1003.4 hPa | 0 mm | - | 46 W/m² | - |
| 1777852990 | 18.89° C | 30% | 1003.4 hPa | 0 mm | - | 54 W/m² | - |
* Rain latest hour (hover to see other rain measurements)
** Current wind speed in m/s (hover to see current wind gust speed)